Вернуться в каталог

FENGYUN 1C DEB

LostPO
NORAD 38505·DEBRIS·🇨🇳 China

Запущен May 10, 1999 с Taiyuan Satellite Launch Center

Loading…

Ближайшие Пролёты (ближайшие 24 часа)

TLE

УстаревшееSource: Space-Track

Эпоха: Aug 22, 2022, 20:47 UTC

1 38505U 99025ESQ 22234.86611318  .00002341  00000-0  13171-2 0  9998
2 38505  98.3426 107.4531 0180001  67.7846 294.2309 14.03416269679584

Отслеживайте FENGYUN 1C DEB в реальном времени с AllMySat

Download on the App Store